Date String (YYYY-MM-DD hh:mm:ss) UTC,Instrument flags,Ambient pressure (hPa),Sample flow (lpm),Bypass flow (lpm),Sample temperature (°C),Ambient temperature (°C),ASC tube jacket temperature (°C),LED temperature (°C),Box temperature (°C),Sample RH (%),Span deviation,Mass concentration (μg/m³),Mass concentration (μg/m³),Mass concentration (μg/m³)
DateTimeUTC,F1_M11,P_M11,Q1_M11,Q2_M11,T1_M11,T2_M11,T3_M11,T4_M11,T5_M11,U1_M11,ZSPAN_M11,X0_M11,X2_M11,X1_M11
2022-12-14 04:00:00,,0812.0,5.00,0.00,22.0,20.7,00.0,30.8,23.8,08.4,0002.1,0018.73,0007.60,0005.79
2022-12-14 04:01:00,,0812.1,5.01,0.00,22.0,20.6,00.0,30.8,23.8,08.5,0002.8,0018.72,0007.59,0005.75
2022-12-14 04:02:00,,0812.0,5.01,0.00,22.0,20.5,00.0,30.8,23.7,08.5,0002.8,0018.70,0007.53,0005.72
2022-12-14 04:03:00,,0812.0,4.96,0.00,21.9,20.5,00.0,30.8,23.7,08.6,0003.1,0019.17,0007.47,0005.69
2022-12-14 04:04:00,,0812.0,5.05,0.00,21.9,20.4,00.0,30.7,23.7,08.6,0003.3,0018.45,0007.43,0005.68
2022-12-14 04:05:00,,0812.0,4.96,0.00,21.9,20.4,00.0,30.7,23.7,08.6,0003.1,0018.93,0007.44,0005.66
2022-12-14 04:06:00,,0812.1,5.01,0.00,21.9,20.4,00.0,30.7,23.7,08.6,0002.8,0019.13,0007.48,0005.65
2022-12-14 04:07:00,,0812.1,5.01,0.00,21.9,20.3,00.0,30.7,23.7,08.6,0002.4,0019.31,0007.47,0005.64
2022-12-14 04:08:00,,0812.1,5.01,0.00,21.9,20.3,00.0,30.7,23.6,08.7,0002.1,0018.76,0007.43,0005.64
2022-12-14 04:09:00,,0812.1,5.00,0.00,21.9,20.3,00.0,30.7,23.6,09.0,0001.3,0018.34,0007.38,0005.65
2022-12-14 04:10:00,,0812.1,4.97,0.00,21.8,20.2,00.0,30.7,23.6,08.9,0000.2,0018.18,0007.40,0005.68
2022-12-14 04:11:00,,0812.0,5.01,0.00,21.8,20.4,00.0,30.7,23.6,08.7,-000.0,0018.43,0007.41,0005.68
2022-12-14 04:12:00,,0812.1,5.02,0.00,21.9,21.4,00.0,30.7,23.8,08.4,-000.5,0019.23,0007.39,0005.68
2022-12-14 04:13:00,,0812.0,4.97,0.00,22.0,22.1,00.0,30.7,24.0,08.2,-000.0,0019.44,0007.40,0005.67
2022-12-14 04:14:00,,0812.0,5.03,0.00,22.1,22.0,00.0,30.8,24.0,08.1,0000.2,0019.18,0007.39,0005.63
2022-12-14 04:15:00,,0812.1,4.98,0.00,22.1,21.7,00.0,30.8,24.0,08.1,-000.2,0019.76,0007.39,0005.61
2022-12-14 04:16:00,,0812.1,5.02,0.00,22.1,21.4,00.0,30.8,23.9,08.0,-000.7,0019.17,0007.34,0005.57
2022-12-14 04:17:00,,0812.0,5.01,0.00,22.1,21.2,00.0,30.8,23.9,08.1,-000.3,0018.10,0007.25,0005.53
2022-12-14 04:18:00,,0812.1,4.97,0.00,22.0,21.0,00.0,30.8,23.9,08.2,0000.0,0017.95,0007.15,0005.50
2022-12-14 04:19:00,,0812.1,5.01,0.00,22.0,20.8,00.0,30.8,23.8,08.7,-000.2,0019.19,0007.15,0005.51
2022-12-14 04:20:00,,0812.1,5.01,0.00,22.0,20.6,00.0,30.8,23.8,09.0,0000.0,0020.36,0007.21,0005.53
2022-12-14 04:21:00,,0812.1,5.01,0.00,22.0,20.5,00.0,30.8,23.7,09.1,0000.0,0020.91,0007.20,0005.53
2022-12-14 04:22:00,,0812.1,5.01,0.00,22.0,20.4,00.0,30.8,23.7,09.3,0000.0,0021.36,0007.31,0005.62
2022-12-14 04:23:00,,0812.1,5.01,0.00,21.9,20.4,00.0,30.8,23.7,09.4,0000.0,0020.84,0007.43,0005.72
2022-12-14 04:24:00,,0812.1,4.97,0.00,21.9,20.4,00.0,30.8,23.7,09.3,0000.0,0021.76,0007.57,0005.82
2022-12-14 04:25:00,,0812.1,5.01,0.00,21.9,20.4,00.0,30.8,23.7,09.4,-000.1,0022.32,0007.79,0005.97
2022-12-14 04:26:00,,0812.1,5.01,0.00,21.9,20.4,00.0,30.8,23.7,09.4,0000.3,0022.19,0007.98,0006.10
2022-12-14 04:27:00,,0812.1,4.98,0.00,21.9,20.4,00.0,30.8,23.7,09.5,0000.4,0024.22,0008.13,0006.23
2022-12-14 04:28:00,,0812.1,5.01,0.00,21.9,20.5,00.0,30.8,23.7,09.7,0000.5,0025.02,0008.38,0006.41
2022-12-14 04:29:00,,0812.1,5.02,0.00,22.0,21.4,00.0,30.8,23.9,10.0,0000.0,0025.72,0008.65,0006.61
2022-12-14 04:30:00,,0812.1,4.96,0.00,22.1,22.2,00.0,30.8,24.1,10.0,0000.3,0025.73,0008.85,0006.76
2022-12-14 04:31:00,,0812.2,5.02,0.00,22.1,22.1,00.0,30.8,24.1,10.1,0001.3,0025.00,0009.05,0006.91
2022-12-14 04:32:00,,0812.2,4.98,0.00,22.2,21.8,00.0,30.9,24.1,10.1,0001.4,0025.24,0009.33,0007.08
2022-12-14 04:33:00,,0812.2,5.02,0.00,22.2,21.5,00.0,30.9,24.0,10.1,0001.1,0025.74,0009.49,0007.20
2022-12-14 04:34:00,,0812.1,4.97,0.00,22.1,21.3,00.0,30.9,24.0,10.1,0001.1,0026.22,0009.51,0007.25
2022-12-14 04:35:00,,0812.2,5.01,0.00,22.1,21.1,00.0,30.9,23.9,10.1,0001.5,0025.73,0009.58,0007.30
2022-12-14 04:36:00,,0812.2,5.02,0.00,22.1,21.0,00.0,30.9,23.9,10.1,0001.7,0026.61,0009.55,0007.34
2022-12-14 04:37:00,,0812.2,4.98,0.00,22.1,20.9,00.0,30.9,23.9,10.1,0001.4,0027.38,0009.64,0007.40
2022-12-14 04:38:00,,0812.2,5.01,0.00,22.1,20.8,00.0,30.9,23.9,10.1,0000.5,0025.75,0009.75,0007.45
2022-12-14 04:39:00,,0812.2,5.00,0.00,22.1,20.6,00.0,30.9,23.9,10.1,0000.3,0026.37,0009.83,0007.49
2022-12-14 04:40:00,,0812.2,5.00,0.00,22.1,20.6,00.0,30.9,23.8,10.1,0000.7,0026.47,0009.89,0007.49
2022-12-14 04:41:00,,0812.3,5.01,0.00,22.0,20.5,00.0,30.9,23.8,10.2,0001.5,0026.08,0010.01,0007.51
2022-12-14 04:42:00,,0812.3,4.98,0.00,22.0,20.4,00.0,30.9,23.8,10.2,0001.3,0026.16,0010.07,0007.50
2022-12-14 04:43:00,,0812.3,5.00,0.00,22.0,20.4,00.0,30.9,23.7,10.2,0001.6,0026.70,0009.99,0007.48
2022-12-14 04:44:00,,0812.3,5.03,0.00,22.0,20.3,00.0,30.9,23.7,10.2,0001.0,0027.64,0009.99,0007.46
2022-12-14 04:45:00,,0812.3,4.96,0.00,21.9,20.4,00.0,30.9,23.7,10.2,0001.1,0027.98,0010.07,0007.47
2022-12-14 04:46:00,,0812.3,5.03,0.00,22.0,21.3,00.0,30.9,23.9,10.2,0000.7,0027.91,0010.11,0007.48
2022-12-14 04:47:00,,0812.3,5.00,0.00,22.1,22.2,00.0,30.9,24.1,10.1,-000.1,0027.69,0010.15,0007.49
2022-12-14 04:48:00,,0812.3,4.99,0.00,22.2,22.2,00.0,30.9,24.2,10.1,0000.1,0027.22,0010.13,0007.49
2022-12-14 04:49:00,,0812.3,4.99,0.00,22.2,21.8,00.0,30.9,24.1,10.1,0001.2,0027.00,0010.06,0007.48
2022-12-14 04:50:00,,0812.3,5.01,0.00,22.2,21.5,00.0,30.9,24.0,10.1,0001.8,0027.01,0010.08,0007.47
2022-12-14 04:51:00,,0812.3,5.02,0.00,22.2,21.3,00.0,31.0,24.0,10.1,0001.9,0027.19,0010.11,0007.46
2022-12-14 04:52:00,,0812.3,4.98,0.00,22.2,21.1,00.0,31.0,24.0,10.1,0001.6,0026.98,0010.07,0007.46
2022-12-14 04:53:00,,0812.3,5.01,0.00,22.2,21.0,00.0,31.0,24.0,10.1,0001.4,0026.40,0010.04,0007.48
2022-12-14 04:54:00,,0812.3,5.01,0.00,22.2,20.9,00.0,31.0,24.0,10.0,0000.4,0026.08,0010.11,0007.50
2022-12-14 04:55:00,,0812.3,4.98,0.00,22.2,20.8,00.0,31.0,24.0,09.9,0001.5,0024.82,0010.07,0007.53
2022-12-14 04:56:00,,0812.3,5.00,0.00,22.2,20.8,00.0,31.0,24.0,09.9,0001.9,0024.21,0010.04,0007.55
2022-12-14 04:57:00,,0812.4,5.01,0.00,22.1,20.7,00.0,31.0,23.9,09.9,0002.2,0024.01,0010.03,0007.59
2022-12-14 04:58:00,,0812.3,5.01,0.00,22.1,20.7,00.0,31.0,23.9,09.9,0002.9,0023.10,0010.09,0007.60
2022-12-14 04:59:00,,0812.4,4.98,0.00,22.1,20.7,00.0,31.0,23.9,09.9,0002.4,0022.79,0010.12,0007.62
